• MPC Preparation (Info)

  • MPEC 2011-V28 : 2011 VW5

    The following Minor Planet Electronic Circular may be linked-to from your own Web pages, but must not otherwise be redistributed electronically.

    A form allowing access to any MPEC is at the bottom of this page.


    Read MPEC 2011-V27 Read MPEC 2011-V29


    M.P.E.C. 2011-V28                                Issued 2011 Nov. 5, 17:45 UT
    
         The Minor Planet Electronic Circulars contain information on unusual
             minor planets and routine data on comets.  They are published
       on behalf of Commission 20 of the International Astronomical Union by the
              Minor Planet Center, Smithsonian Astrophysical Observatory,
                              Cambridge, MA 02138, U.S.A.
    
                 Prepared using the Tamkin Foundation Computer Network
    
                                  MPC@CFA.HARVARD.EDU
                URL https://www.minorplanetcenter.net/    ISSN 1523-6714
    
                                       2011 VW5
    
    Observations:
         K11V05W* C2011 11 03.49012 08 52 03.36 +55 17 47.0          19.2 VrEV028703
         K11V05W  C2011 11 03.49468 08 52 04.15 +55 17 49.3          19.0 VrEV028703
         K11V05W  C2011 11 03.49921 08 52 04.94 +55 17 52.3          19.3 VrEV028703
         K11V05W  C2011 11 03.50373 08 52 05.73 +55 17 54.7          19.1 VrEV028703
         K11V05W  C2011 11 03.87458 08 53 08.68 +55 21 26.5          19.0 RvEV028C32
         K11V05W  C2011 11 03.87703 08 53 09.12 +55 21 27.4          18.8 RvEV028C32
         K11V05W  C2011 11 03.87965 08 53 09.39 +55 21 29.7          19.0 RvEV028C32
         K11V05W  C2011 11 03.88211 08 53 09.89 +55 21 30.6          19.1 RvEV028C32
         K11V05W KC2011 11 05.36500 08 57 09.38 +55 36 20.5          18.8 RoEV028850
         K11V05W KC2011 11 05.36634708 57 09.51 +55 36 20.8          19.8 VtEV028H21
         K11V05W KC2011 11 05.36926508 57 09.93 +55 36 22.5          19.8 VtEV028H21
         K11V05W KC2011 11 05.37214708 57 10.39 +55 36 24.4          19.8 VtEV028H21
         K11V05W KC2011 11 05.37497508 57 10.78 +55 36 26.0          19.9 VtEV028H21
         K11V05W KC2011 11 05.37547 08 57 10.78 +55 36 27.9          19.1 RoEV028850
         K11V05W KC2011 11 05.37786008 57 11.24 +55 36 27.9          20.1 VtEV028H21
         K11V05W KC2011 11 05.38594 08 57 12.41 +55 36 34.6          18.3 RoEV028850
    
    Observer details:
    703 Catalina Sky Survey.  Observer A. Boattini.  Measurers J. D. Ahern,
        E. C. Beshore, A. Boattini, G. J. Garradd, A. R. Gibbs, P. Tricarico,
        A. D. Grauer, R. E. Hill, R. A. Kowalski, S. M. Larson, R. H. McNaught.
        0.68-m Schmidt + CCD.
    850 Cordell-Lorenz Observatory, Sewanee.  Observers D. T. Durig, J. R. Davis,
        H. T. Dziminski.  0.30-m f/2.6 Schmidt-Cassegrain + 765x510 CCD.
    C32 Ka-Dar Observatory, TAU Station, Nizhny Arkhyz.  Observer V. Gerke.
        Measurers A. Novichonok, D. Chestnov.  0.40-m f/8 Ritchey-Chretien + CCD.
    H21 Astronomical Research Observatory, Westfield.  Observer R. Holmes.
        Measurers T. Vorobjov, L. Buzzi, S. Foglia.  0.61-m f/4.0 astrograph + CCD.
    
    Orbital elements:
    2011 VW5                                                 Earth MOID = 0.1116 AU
    Epoch 2011 Aug. 27.0 TT = JDT 2455800.5                 MPC
    M 354.08707              (2000.0)            P               Q
    n   0.19867019     Peri.   20.22037     +0.91964290     -0.39243178
    a   2.9088026      Node     3.02954     +0.30593729     +0.69030875
    e   0.6236454      Incl.   17.55898     +0.24629110     +0.60784137
    P   4.96           H   18.4           G   0.15           U   9
    Residuals in seconds of arc
    111103 703  1.1-  0.9+    111103 C32  1.1-  0.5+    111105 H21  0.3-  0.2+
    111103 703  0.5-  0.3+    111103 C32  0.4-  0.2-    111105 850  1.1-  0.6+
    111103 703  0.0   0.4+    111105 850  0.3+  0.2-    111105 H21  0.1-  0.3+
    111103 703  0.6+  0.0     111105 H21  0.1-  0.5+    111105 850  0.5-  0.7+
    111103 C32  0.0   0.7+    111105 H21  0.3-  0.3+
    111103 C32  0.3+  0.0     111105 H21  0.0   0.4+
    
    Ephemeris:
    2011 VW5                 a,e,i = 2.91, 0.62, 18                  q = 1.0947
    Date    TT    R. A. (2000) Decl.     Delta      r     Elong.  Phase     V
    2011 10 06    06 52 24.3 +46 56 10   0.4271  1.1028    92.3    65.0    19.1
    ...
    2011 10 21    08 04 30.7 +52 31 30   0.4846  1.1422    94.7    60.3    19.3
    ...
    2011 10 29    08 34 58.4 +54 18 30   0.5145  1.1752    97.3    57.0    19.4
    ...
    2011 11 04    08 53 28.0 +55 22 48   0.5356  1.2046    99.8    54.2    19.4
    2011 11 05    08 56 10.4 +55 32 43   0.5389  1.2098   100.2    53.8    19.4
    2011 11 06    08 58 46.4 +55 42 28   0.5423  1.2152   100.7    53.3    19.4
    ...
    2011 11 12    09 12 04.3 +56 38 45   0.5616  1.2491   103.8    50.3    19.5
    ...
    2011 11 20    09 23 29.9 +57 51 47   0.5854  1.2988   108.5    46.2    19.6
    ...
    2011 12 05    09 24 04.9 +60 05 42   0.6284  1.4025   119.0    37.9    19.6
    
    A. U. Tomatic                (C) Copyright 2011 MPC           M.P.E.C. 2011-V28
    

    Read MPEC 2011-V27 Read MPEC 2011-V29


    MPEC number:

    Enter an MPEC number in one of the following forms:

    • 1997-B01 (the full form)
    • J97B01 (the packed version of the full form)
    • B01 (the abbreviated form)